Location: Sibbertoft
(52.4361°N, 1.0300°W)
Time: 15:28:38
(UTC+01:00)

ISS - Visible Passes

Search period start: 18 September 2020 00:00
Search period end: 28 September 2020 00:00
Orbit: 419 x 420 km, 51.6° (Epoch: 18 September)

Date Brightness Start Highest point End Pass type
(mag) Time Alt. Az. Time Alt. Az. Time Alt. Az.
18 Sep -2.3 20:38:55 10° SSW 20:41:14 21° SSE 20:41:14 21° SSE visible
19 Sep -1.8 19:52:18 10° S 19:54:20 15° SE 19:56:09 11° ESE visible
19 Sep -2.2 21:27:20 10° SW 21:29:08 27° SW 21:29:08 27° SW visible
20 Sep -3.1 20:40:07 10° SW 20:43:16 38° SSE 20:43:52 34° SE visible
20 Sep -0.7 22:16:32 10° W 22:16:51 12° W 22:16:51 12° W visible
21 Sep -2.7 19:53:01 10° SSW 19:55:58 29° SSE 19:58:29 13° E visible
21 Sep -2.7 21:29:09 10° WSW 21:31:27 40° WSW 21:31:27 40° WSW visible
22 Sep -3.7 20:41:47 10° WSW 20:45:06 61° SSE 20:45:57 43° ESE visible
22 Sep -0.7 22:18:29 10° W 22:18:54 13° W 22:18:54 13° W visible
23 Sep -3.4 19:54:28 10° SW 19:57:44 49° SSE 20:00:22 15° E visible
23 Sep -2.5 21:31:03 10° W 21:33:20 39° W 21:33:20 39° W visible
24 Sep -3.9 20:43:37 10° W 20:47:00 78° S 20:47:42 52° ESE visible
24 Sep -0.5 22:20:24 10° W 22:20:39 12° W 22:20:39 12° W visible
25 Sep -3.7 19:56:12 10° WSW 19:59:33 71° S 20:02:01 17° E visible
25 Sep -2.2 21:32:57 10° W 21:34:58 33° W 21:34:58 33° W visible
26 Sep -3.9 20:45:29 10° W 20:48:51 77° S 20:49:16 64° SE visible
27 Sep -3.8 19:58:00 10° W 20:01:24 80° S 20:03:33 21° E visible
27 Sep -1.7 21:34:49 10° W 21:36:30 26° W 21:36:30 26° W visible
